[[{"header":{"parameterUnit":"m.s-1","parameterCategory":1,"la1":30.2991,"la2":30.254,"lo1":-89.0895,"lo2":-89.0444,"dy":0.0017,"dx":0.0017,"nx":28,"ny":28,"refTime":"2024-07-23T03:00:00:Z","depth":0,"parameterNumber":2,"parameterNumberName":"U-component_of_WINDS"},"data":[0,0,0,0,0,0,0,0,0,0,0,0,0,0,0,0,0,0,0,0,0,0,0,0,0,0,0,0,0,0,0,0,0,0,0,0,0,0,0,0,0,0,0,0,0,0,0,0,0,0,0,0,0,0,0,0,0,0,0.6076,0.6078,0,0.6297,0.63,0.6302,0.6391,0.639,0.6389,0.6389,0.6619,0.6626,0.6632,0,0,0,0,0,0,0,0,0,0,0,0,0,0.5733,0.5739,0.6075,0.6078,0.6081,0.6297,0.63,0.6303,0.6391,0.639,0.6389,0.6389,0.6617,0.6625,0.6633,0,0,0,0,0,0,0,0,0,0,0,0,0,0.5911,0.5741,0.6075,0.6151,0.616,0.6296,0.63,0.6304,0.6391,0.639,0.6389,0.6388,0.6614,0.6624,0.6634,0.6712,0,0,0.6664,0.6669,0,0,0,0,0,0,0,0,0.5901,0.5924,0.6137,0.6146,0.6156,0.6315,0.6264,0.6441,0.6391,0.6303,0.6389,0.6388,0.6519,0.6537,0.658,0.6723,0.6733,0.6665,0.6671,0.6676,0.6678,0,0,0,0,0,0,0,0.5889,0.5915,0.6163,0.614,0.6152,0.6175,0.62,0.6298,0.6413,0.6311,0.6318,0.6342,0.6524,0.657,0.6586,0.6736,0.6665,0.6674,0.668,0.6684,0.6957,0.6959,0,0,0,0,0,0,0.5863,0.5904,0.6156,0.617,0.6024,0.6182,0.6209,0.6265,0.6412,0.6434,0.6343,0.6346,0.6554,0.6574,0.6595,0.6698,0.6675,0.6685,0.6691,0.6956,0.6958,0.6959,0,0,0,0,0,0,0.5855,0.5885,0.6147,0.6039,0.6074,0.6189,0.6251,0.627,0.6316,0.6437,0.6458,0.6369,0.6554,0.6581,0.6683,0.6707,0.6689,0.6698,0.6955,0.6957,0.6958,0.6903,0,0,0,0,0,0,0.5845,0.5881,0.5911,0.6039,0.6079,0.623,0.6252,0.6275,0.6333,0.6339,0.6466,0.6487,0.6555,0.6667,0.6693,0.672,0.6706,0.6953,0.6955,0.6958,0.6903,0.6903,0.6902,0,0,0,0,0,0.5833,0.5887,0.5912,0.5942,0.6119,0.6231,0.6255,0.6331,0.6334,0.6366,0.6444,0.6483,0.67,0.6677,0.6706,0.6737,0.6952,0.6955,0.6957,0.6903,0.6903,0.6902,0,0,0,0,0,0,0.576,0.5905,0.5935,0.6031,0.6118,0.6246,0.6288,0.6328,0.6416,0.6418,0.6511,0.6539,0.6633,0.6696,0.6668,0.6822,0.6829,0.6838,0.6778,0.6778,0.6778,0.6761,0.6714,0,0,0,0,0,0.5755,0.5833,0.5956,0.603,0.6072,0.6172,0.6224,0.6275,0.6369,0.6407,0.6492,0.6583,0.6672,0.6729,0.6817,0.6913,0.6943,0.6949,0.6948,0.6947,0.6954,0.7011,0.7016,0.6968,0.6968,0.6968,0,0,0.5746,0.5835,0.5878,0.6017,0.6091,0.6171,0.6202,0.6285,0.6346,0.642,0.6521,0.6587,0.6695,0.6794,0.6843,0.6849,0.6974,0.6951,0.6949,0.6957,0.7015,0.7019,0.7023,0.697,0.697,0.697,0,0,0.577,0.5845,0.5915,0.5988,0.6098,0.6165,0.6182,0.6304,0.635,0.6453,0.6511,0.6586,0.6736,0.6811,0.6869,0.6924,0.6964,0.695,0.6948,0.7003,0.7007,0.701,0.7031,0.7038,0.6956,0.6956,0.6956,0,0.5745,0.5867,0.5946,0.6027,0.6087,0.6157,0.623,0.6297,0.6431,0.6472,0.6477,0.6669,0.6747,0.6866,0.6879,0.6923,0.6947,0.6936,0.6999,0.7004,0.7009,0.703,0.7037,0.6954,0.6954,0.6954,0.6955,0,0.5832,0.5915,0.5959,0.6086,0.6151,0.6227,0.632,0.6377,0.6424,0.649,0.6596,0.6691,0.6801,0.6833,0.6879,0.6959,0.696,0.6981,0.699,0.701,0.7031,0.704,0.6951,0.6951,0.6952,0.6953,0,0,0.5816,0.5986,0.6001,0.606,0.6188,0.6255,0.6335,0.6442,0.649,0.658,0.6651,0.6778,0.6799,0.6864,0.692,0.6968,0.7007,0.6984,0.6988,0.6985,0.7103,0.7086,0.7094,0.7034,0.7036,0.7037,0.7094,0,0.5858,0.6003,0.6078,0.6192,0.6271,0.634,0.641,0.6497,0.6562,0.664,0.6713,0.6801,0.6821,0.6862,0.6912,0.6991,0.7032,0.6988,0.7103,0.7106,0.7074,0.7105,0.7088,0.7137,0.7103,0.7105,0.7106,0,0.5926,0.6015,0.6137,0.6257,0.6293,0.6354,0.6459,0.6532,0.6633,0.6678,0.6751,0.6806,0.6895,0.6897,0.7023,0.6991,0.7043,0.7089,0.7093,0.7107,0.7107,0.7121,0.7155,0.7162,0.7119,0.7118,0.7117,0,0.5904,0.6054,0.6147,0.6195,0.6337,0.6379,0.6441,0.6541,0.66,0.6693,0.6733,0.6834,0.689,0.6968,0.705,0.7043,0.7168,0.7176,0.7208,0.7206,0.7232,0.7229,0.7274,0.7263,0.7263,0.7263,0.7263,0,0.5943,0.6015,0.6139,0.6196,0.6279,0.6366,0.6446,0.6513,0.6602,0.6675,0.674,0.6807,0.6911,0.6991,0.7056,0.7151,0.7176,0.7215,0.7231,0.721,0.7204,0.7245,0.7244,0.7265,0.7265,0.7264,0.7264,0,0.5932,0.6017,0.6123,0.6249,0.6282,0.6338,0.6447,0.6506,0.6575,0.6666,0.6693,0.6801,0.6899,0.6988,0.7119,0.7163,0.726,0.728,0.7225,0.7234,0.7262,0.7258,0.7336,0.7351,0.7328,0.7328,0.7328,0,0.5952,0.6009,0.6141,0.6193,0.6253,0.6338,0.6399,0.6487,0.6549,0.6669,0.6714,0.6817,0.6904,0.7059,0.715,0.7251,0.7275,0.7295,0.7291,0.7267,0.7277,0.7273,0.728,0.7294,0.7294,0.7294,0.7294,0,0.5978,0.6018,0.6103,0.6204,0.6275,0.6359,0.6445,0.6485,0.659,0.6656,0.6757,0.6824,0.6958,0.7061,0.7172,0.7238,0.7284,0.7294,0.7308,0.7286,0.7252,0.7272,0.7224,0.7292,0.7293,0.7293,0.7293,0.7293,0.5984,0.6039,0.614,0.6234,0.6307,0.6387,0.6449,0.6525,0.661,0.6725,0.6773,0.6876,0.6978,0.7132,0.7198,0.7281,0.729,0.7308,0.7313,0.7317,0.7313,0.7238,0.7301,0.7302,0.7302,0.7302,0.7302,0,0.6015,0.6084,0.6169,0.6287,0.6361,0.6397,0.6495,0.6555,0.6644,0.6734,0.6819,0.6936,0.7036,0.7136,0.7241,0.7289,0.7313,0.7314,0.7312,0.7327,0.7298,0.7277,0.7293,0.7293,0.7293,0.7293,0.7293,0.7293,0.604,0.6134,0.6186,0.6319,0.6388,0.6488,0.6541,0.6616,0.6688,0.6816,0.6899,0.6963,0.7058,0.7171,0.7265,0.7292,0.7329,0.7324,0.7357,0.7328,0.7328,0.7328,0.7308,0.7331,0.7331,0.7378,0.7379,0.7379]},{"header":{"parameterUnit":"m.s-1","parameterCategory":1,"la1":30.2991,"la2":30.254,"lo1":-89.0895,"lo2":-89.0444,"dy":0.0017,"dx":0.0017,"nx":28,"ny":28,"refTime":"2024-07-23T03:00:00:Z","depth":0,"parameterNumber":3,"parameterNumberName":"V-component_of_WINDS"},"data":[0,0,0,0,0,0,0,0,0,0,0,0,0,0,0,0,0,0,0,0,0,0,0,0,0,0,0,0,0,0,0,0,0,0,0,0,0,0,0,0,0,0,0,0,0,0,0,0,0,0,0,0,0,0,0,0,0,0,-3.373,-3.3729,0,-3.3628,-3.3626,-3.3625,-3.3553,-3.3552,-3.3552,-3.3551,-3.3442,-3.3439,-3.3437,0,0,0,0,0,0,0,0,0,0,0,0,0,-3.3858,-3.3856,-3.3731,-3.3729,-3.3728,-3.3628,-3.3626,-3.3625,-3.3553,-3.3552,-3.3552,-3.3551,-3.3442,-3.344,-3.3437,0,0,0,0,0,0,0,0,0,0,0,0,0,-3.3783,-3.3855,-3.3731,-3.368,-3.3675,-3.3628,-3.3626,-3.3625,-3.3553,-3.3552,-3.3552,-3.3551,-3.3443,-3.344,-3.3436,-3.3431,0,0,-3.3425,-3.3424,0,0,0,0,0,0,0,0,-3.3788,-3.3779,-3.3689,-3.3683,-3.3677,-3.3602,-3.3631,-3.3559,-3.3553,-3.3599,-3.3551,-3.355,-3.3496,-3.3488,-3.347,-3.3426,-3.3421,-3.3425,-3.3423,-3.3421,-3.342,0,0,0,0,0,0,0,-3.3793,-3.3783,-3.369,-3.3688,-3.368,-3.366,-3.3649,-3.3617,-3.3553,-3.3595,-3.359,-3.3579,-3.3492,-3.3474,-3.3467,-3.3419,-3.3425,-3.3422,-3.342,-3.3418,-3.336,-3.336,0,0,0,0,0,0,-3.3807,-3.3788,-3.3693,-3.3687,-3.3732,-3.3659,-3.3646,-3.3627,-3.3553,-3.3541,-3.358,-3.3576,-3.348,-3.3471,-3.3463,-3.3448,-3.3421,-3.3418,-3.3416,-3.3359,-3.336,-3.3361,0,0,0,0,0,0,-3.381,-3.3799,-3.3697,-3.3735,-3.3721,-3.3657,-3.3637,-3.3626,-3.3607,-3.3542,-3.3529,-3.3573,-3.3479,-3.3468,-3.3438,-3.3443,-3.3416,-3.3413,-3.3358,-3.3359,-3.336,-3.3421,0,0,0,0,0,0,-3.3814,-3.3801,-3.38,-3.3736,-3.3719,-3.3677,-3.3637,-3.3624,-3.3602,-3.3596,-3.3532,-3.3521,-3.3478,-3.3444,-3.3435,-3.3438,-3.341,-3.3358,-3.3359,-3.336,-3.3418,-3.3424,-3.3429,0,0,0,0,0,-3.3819,-3.3821,-3.38,-3.3789,-3.3717,-3.3677,-3.3668,-3.3619,-3.3602,-3.3599,-3.3557,-3.3523,-3.3445,-3.3442,-3.3431,-3.3433,-3.3357,-3.3359,-3.336,-3.3416,-3.3423,-3.3429,0,0,0,0,0,0,-3.3886,-3.3812,-3.3788,-3.377,-3.3731,-3.3665,-3.3661,-3.3629,-3.3592,-3.3588,-3.3528,-3.3515,-3.349,-3.3459,-3.3457,-3.3421,-3.3396,-3.3396,-3.3443,-3.3449,-3.3454,-3.3461,-3.3407,0,0,0,0,0,-3.3899,-3.3875,-3.3811,-3.3801,-3.3782,-3.3725,-3.3706,-3.3672,-3.3628,-3.3611,-3.3566,-3.3523,-3.3488,-3.3467,-3.3432,-3.3413,-3.3396,-3.3409,-3.3414,-3.3419,-3.3418,-3.3402,-3.3406,-3.3365,-3.3365,-3.3365,0,0,-3.3925,-3.3882,-3.387,-3.3813,-3.3779,-3.3752,-3.3711,-3.3686,-3.3665,-3.3606,-3.3576,-3.3541,-3.3489,-3.3464,-3.3451,-3.3437,-3.3426,-3.342,-3.3425,-3.3421,-3.3404,-3.3408,-3.3411,-3.3366,-3.3366,-3.3366,0,0,-3.3959,-3.3925,-3.3912,-3.3878,-3.3826,-3.3787,-3.3784,-3.3723,-3.3698,-3.3666,-3.362,-3.3593,-3.3536,-3.3499,-3.3474,-3.349,-3.3456,-3.348,-3.3507,-3.3492,-3.3495,-3.3498,-3.35,-3.3503,-3.348,-3.348,-3.348,0,-3.3997,-3.3958,-3.3908,-3.3885,-3.386,-3.3806,-3.379,-3.3759,-3.3698,-3.368,-3.3666,-3.359,-3.3552,-3.3516,-3.3519,-3.3501,-3.3493,-3.3487,-3.3499,-3.3501,-3.3502,-3.3504,-3.3506,-3.3483,-3.3483,-3.3483,-3.3482,0,-3.4006,-3.398,-3.3975,-3.3918,-3.3892,-3.3873,-3.3817,-3.3796,-3.3764,-3.3726,-3.3692,-3.3643,-3.3596,-3.3585,-3.3553,-3.3543,-3.3535,-3.3511,-3.3485,-3.351,-3.3511,-3.3512,-3.3488,-3.3487,-3.3486,-3.3485,0,0,-3.408,-3.3995,-3.3994,-3.3966,-3.3903,-3.388,-3.3857,-3.3811,-3.3793,-3.3752,-3.3729,-3.368,-3.3656,-3.3626,-3.3589,-3.3576,-3.3588,-3.3552,-3.355,-3.3559,-3.357,-3.3587,-3.3589,-3.3565,-3.3565,-3.3565,-3.3573,0,-3.4103,-3.406,-3.4013,-3.3985,-3.3958,-3.3905,-3.3883,-3.3841,-3.3805,-3.3774,-3.3732,-3.3697,-3.367,-3.3651,-3.3636,-3.359,-3.3589,-3.3589,-3.354,-3.3539,-3.3553,-3.359,-3.361,-3.3619,-3.3573,-3.3573,-3.3573,0,-3.4123,-3.4085,-3.4055,-3.3993,-3.3979,-3.3962,-3.3914,-3.3887,-3.3836,-3.381,-3.3776,-3.3736,-3.3705,-3.3683,-3.3637,-3.3638,-3.3614,-3.3589,-3.3588,-3.358,-3.3557,-3.3581,-3.3622,-3.3623,-3.3574,-3.3574,-3.3574,0,-3.4177,-3.4118,-3.4092,-3.407,-3.3997,-3.3985,-3.3954,-3.3903,-3.3877,-3.3835,-3.3817,-3.3771,-3.3746,-3.3709,-3.3657,-3.3646,-3.3615,-3.359,-3.359,-3.3591,-3.3585,-3.3586,-3.362,-3.3573,-3.3573,-3.3573,-3.3573,0,-3.4206,-3.4189,-3.4114,-3.4098,-3.4076,-3.4021,-3.4,-3.3963,-3.3918,-3.3891,-3.3842,-3.3817,-3.3751,-3.3717,-3.3675,-3.3641,-3.3631,-3.3606,-3.3595,-3.361,-3.3612,-3.3593,-3.359,-3.3574,-3.3574,-3.3573,-3.3573,0,-3.4261,-3.4212,-3.4179,-3.4112,-3.4095,-3.4081,-3.4023,-3.4003,-3.3963,-3.3929,-3.3918,-3.3854,-3.3811,-3.3756,-3.3696,-3.3667,-3.3637,-3.3621,-3.3655,-3.3648,-3.365,-3.365,-3.3672,-3.367,-3.3627,-3.3628,-3.3628,0,-3.4282,-3.4268,-3.42,-3.4179,-3.415,-3.4117,-3.4091,-3.4035,-3.4009,-3.3948,-3.3935,-3.3889,-3.3849,-3.3783,-3.3729,-3.3681,-3.3662,-3.3673,-3.3655,-3.3669,-3.3659,-3.366,-3.3657,-3.3677,-3.3678,-3.3679,-3.3679,0,-3.4323,-3.4299,-3.4264,-3.4219,-3.419,-3.4152,-3.4111,-3.4096,-3.4031,-3.4003,-3.396,-3.3929,-3.3867,-3.382,-3.3765,-3.3729,-3.3692,-3.3685,-3.3682,-3.3697,-3.3716,-3.3703,-3.3665,-3.3685,-3.3684,-3.3684,-3.3684,-3.3684,-3.436,-3.4344,-3.4293,-3.4254,-3.4218,-3.4181,-3.4158,-3.4115,-3.4079,-3.4025,-3.3994,-3.3951,-3.3896,-3.3819,-3.3784,-3.3747,-3.3733,-3.373,-3.3728,-3.3728,-3.3732,-3.3723,-3.3737,-3.3737,-3.3737,-3.3737,-3.3736,0,-3.4396,-3.4361,-3.4326,-3.4271,-3.424,-3.421,-3.4163,-3.4138,-3.4101,-3.4055,-3.4017,-3.3965,-3.3919,-3.3861,-3.381,-3.3791,-3.3772,-3.3779,-3.3779,-3.3771,-3.3748,-3.3755,-3.3795,-3.3795,-3.3795,-3.3795,-3.3795,-3.3795,-3.4411,-3.4381,-3.4351,-3.4301,-3.4264,-3.4223,-3.4198,-3.4162,-3.4125,-3.407,-3.4032,-3.3995,-3.3943,-3.3887,-3.3842,-3.3826,-3.3808,-3.382,-3.3798,-3.3778,-3.3773,-3.3768,-3.3774,-3.3817,-3.3817,-3.3824,-3.3824,-3.3824]}]]